Prestonsburg, KY

11:49 PM EDT on April 24, 2018 (GMT -0400)
Prestonsburg

Weather History for KK22 - May, 2013

Change the Weather History Date:

Sunday, May 12, 2013

  Actual Average (KJKL) Record (KJKL)
Temperature  
Mean Temperature 52 °F -  
Max Temperature 59 °F 72 °F 88 °F (1982)
Min Temperature 44 °F 52 °F 40 °F (1989)
Degree Days  
Heating Degree Days 14    
Growing Degree Days 2 (Base 50)    
Moisture  
Dew Point 36 °F    
Average Humidity 58    
Maximum Humidity 94    
Minimum Humidity 33    
Precipitation  
Precipitation 0.00 in - - ()
Sea Level Pressure  
Sea Level Pressure 30.05 in    
Wind  
Wind Speed 4 mph (NW)    
Max Wind Speed 13 mph    
Max Gust Speed 21 mph    
Visibility 10 miles    
Events Rain    
Averages and records for this station are not official NWS values.
T = Trace of Precipitation, MM = Missing Value Source: NWS Daily Summary

Daily Weather History Graph

Daily Weather History Graph

Search for Another Location

Airport or City:

Astronomy

May. 12, 2013 Rise Set
Actual Time 6:23 AM EDT 8:31 PM EDT
Civil Twilight 5:54 AM EDT 9:00 PM EDT
Nautical Twilight 5:18 AM EDT 9:36 PM EDT
Astronomical Twilight 4:39 AM EDT 10:14 PM EDT
Moon 8:17 AM EDT (5/12) 10:56 PM EDT (5/12)
Length of Visible Light 15h 06m
Length of Day
14h 07m
Waxing Crescent, 6% of the Moon is Illuminated
May 12
Waxing Crescent
May 18
First Quarter
May 25
Full
May 31
Last Quarter
Jun 8
New

Hourly Weather History & Observations

Time (EDT) Temp. Windchill Dew Point Humidity Pressure Visibility Wind Dir Wind Speed Gust Speed Precip Events Conditions
12:15 AM 52.7 °F - 50.0 °F 91% 29.96 in 10.0 mi Calm Calm - N/A   Scattered Clouds
12:35 AM 52.3 °F - 50.2 °F 92% 29.96 in 10.0 mi WSW 4.6 mph - N/A   Mostly Cloudy
12:55 AM 52.5 °F - 50.5 °F 93% 29.96 in 10.0 mi West 4.6 mph - N/A   Overcast
1:15 AM 53.1 °F - 50.5 °F 91% 29.97 in 10.0 mi West 5.8 mph - N/A   Overcast
1:35 AM 53.1 °F - 50.4 °F 91% 29.97 in 10.0 mi West 4.6 mph - N/A   Drizzle
1:55 AM 52.7 °F - 50.4 °F 92% 29.97 in 7.0 mi West 4.6 mph - N/A   Drizzle
2:15 AM 52.3 °F - 50.5 °F 94% 29.96 in 7.0 mi West 4.6 mph - N/A Rain Rain
2:35 AM 52.3 °F - 50.5 °F 94% 29.96 in 10.0 mi West 3.5 mph - N/A   Overcast
2:55 AM 50.2 °F - 45.9 °F 85% 29.99 in 10.0 mi North 6.9 mph 16.1 mph N/A   Overcast
3:15 AM 48.4 °F - 42.4 °F 80% 29.99 in 10.0 mi NNE 8.1 mph 17.3 mph N/A   Overcast
3:35 AM 47.8 °F - 41.0 °F 77% 30.00 in 10.0 mi North 5.8 mph - N/A   Overcast
3:55 AM 46.9 °F - 39.7 °F 76% 30.00 in 10.0 mi North 4.6 mph - N/A   Overcast
4:15 AM 46.4 °F 44.3 °F 39.2 °F 76% 30.00 in 10.0 mi NNW 4.6 mph - N/A   Overcast
4:35 AM 46.2 °F 45.0 °F 39.0 °F 76% 30.01 in 10.0 mi NNW 3.5 mph - N/A   Overcast
4:55 AM 45.9 °F 44.6 °F 38.8 °F 76% 30.01 in 10.0 mi NNW 3.5 mph - N/A   Overcast
5:35 AM 45.5 °F 43.2 °F 38.8 °F 78% 30.02 in 10.0 mi NNW 4.6 mph - N/A   Overcast
5:55 AM 44.8 °F 42.4 °F 37.9 °F 77% 30.02 in 10.0 mi NNW 4.6 mph - N/A   Overcast
6:15 AM 44.8 °F 43.3 °F 37.4 °F 75% 30.03 in 10.0 mi NW 3.5 mph - N/A   Overcast
6:35 AM 44.6 °F 43.1 °F 37.0 °F 75% 30.03 in 10.0 mi NNW 3.5 mph - N/A   Overcast
6:55 AM 44.6 °F - 37.4 °F 76% 30.04 in 10.0 mi Calm Calm - N/A   Overcast
7:15 AM 44.6 °F - 38.7 °F 80% 30.04 in 10.0 mi Calm Calm - N/A   Overcast
7:35 AM 44.8 °F - 39.0 °F 80% 30.05 in 10.0 mi Calm Calm - N/A   Overcast
7:55 AM 45.5 °F 44.2 °F 38.5 °F 76% 30.06 in 10.0 mi NW 3.5 mph - N/A   Scattered Clouds
8:15 AM 45.7 °F 44.4 °F 37.8 °F 74% 30.06 in 10.0 mi NW 3.5 mph - N/A   Clear
8:35 AM 46.8 °F - 37.6 °F 70% 30.06 in 10.0 mi WNW 4.6 mph - N/A   Clear
8:55 AM 47.5 °F - 37.4 °F 68% 30.07 in 10.0 mi NW 3.5 mph - N/A   Clear
9:15 AM 47.7 °F - 36.5 °F 65% 30.07 in 10.0 mi West 3.5 mph - N/A   Clear
9:35 AM 48.7 °F - 36.7 °F 63% 30.07 in 10.0 mi NNW 4.6 mph - N/A   Clear
9:55 AM 50.2 °F - 36.0 °F 58% 30.07 in 10.0 mi West 3.5 mph - N/A   Clear
10:15 AM 50.0 °F - 34.0 °F 54% 30.07 in 10.0 mi WNW 5.8 mph - N/A   Scattered Clouds
10:35 AM 50.7 °F - 32.7 °F 50% 30.07 in 10.0 mi NNW 8.1 mph - N/A   Scattered Clouds
10:55 AM 52.2 °F - 32.5 °F 47% 30.07 in 10.0 mi NW 5.8 mph - N/A   Mostly Cloudy
11:15 AM 52.7 °F - 33.4 °F 48% 30.07 in 10.0 mi NW 4.6 mph - N/A   Mostly Cloudy
11:35 AM 51.8 °F - 31.8 °F 47% 30.07 in 10.0 mi NNW 10.4 mph - N/A   Mostly Cloudy
11:55 AM 51.6 °F - 31.8 °F 47% 30.07 in 10.0 mi West 8.1 mph - N/A   Mostly Cloudy
12:15 PM 53.8 °F - 33.1 °F 45% 30.07 in 10.0 mi WNW 4.6 mph - N/A   Mostly Cloudy
12:35 PM 52.2 °F - 32.0 °F 46% 30.08 in 10.0 mi WNW 5.8 mph - N/A   Mostly Cloudy
12:55 PM 53.8 °F - 32.2 °F 44% 30.07 in 10.0 mi West 9.2 mph - N/A   Mostly Cloudy
1:15 PM 54.3 °F - 32.5 °F 44% 30.07 in 10.0 mi NNW 8.1 mph - N/A   Mostly Cloudy
1:35 PM 54.1 °F - 32.2 °F 43% 30.07 in 10.0 mi WNW 5.8 mph - N/A   Scattered Clouds
1:55 PM 56.5 °F - 33.1 °F 41% 30.07 in 10.0 mi West 9.2 mph - N/A   Mostly Cloudy
2:15 PM 57.0 °F - 33.8 °F 42% 30.07 in 10.0 mi West 6.9 mph - N/A   Overcast
2:35 PM 57.7 °F - 34.3 °F 41% 30.07 in 10.0 mi NNW 3.5 mph - N/A   Mostly Cloudy
2:55 PM 58.1 °F - 34.9 °F 42% 30.07 in 10.0 mi WNW 10.4 mph 20.7 mph N/A   Mostly Cloudy
3:15 PM 58.5 °F - 35.6 °F 42% 30.06 in 10.0 mi West 8.1 mph - N/A   Scattered Clouds
3:35 PM 56.7 °F - 32.7 °F 40% 30.06 in 10.0 mi WNW 8.1 mph 16.1 mph N/A   Mostly Cloudy
3:55 PM 57.7 °F - 33.6 °F 40% 30.05 in 10.0 mi NW 9.2 mph 17.3 mph N/A   Mostly Cloudy
4:15 PM 57.7 °F - 32.7 °F 39% 30.05 in 10.0 mi WNW 8.1 mph - N/A   Mostly Cloudy
4:35 PM 58.6 °F - 31.3 °F 36% 30.05 in 10.0 mi NW 11.5 mph 18.4 mph N/A   Mostly Cloudy
4:55 PM 59.0 °F - 30.0 °F 33% 30.05 in 10.0 mi WNW 10.4 mph 18.4 mph N/A   Scattered Clouds
5:15 PM 57.9 °F - 30.6 °F 35% 30.06 in 10.0 mi NW 6.9 mph 18.4 mph N/A   Scattered Clouds
5:35 PM 57.6 °F - 30.0 °F 35% 30.06 in 10.0 mi NW 6.9 mph 20.7 mph N/A   Scattered Clouds
5:55 PM 56.5 °F - 30.0 °F 36% 30.06 in 10.0 mi WNW 6.9 mph - N/A   Scattered Clouds
6:15 PM 56.7 °F - 30.0 °F 36% 30.06 in 10.0 mi WNW 9.2 mph 16.1 mph N/A   Clear
6:35 PM 57.0 °F - 29.5 °F 35% 30.06 in 10.0 mi NW 12.7 mph 16.1 mph N/A   Scattered Clouds
6:55 PM 56.3 °F - 29.5 °F 36% 30.06 in 10.0 mi WNW 8.1 mph - N/A   Scattered Clouds
7:15 PM 56.3 °F - 29.3 °F 36% 30.07 in 10.0 mi NW 8.1 mph - N/A   Mostly Cloudy
7:35 PM 55.2 °F - 28.9 °F 37% 30.07 in 10.0 mi NNW 6.9 mph 16.1 mph N/A   Scattered Clouds
7:55 PM 54.5 °F - 29.8 °F 39% 30.07 in 10.0 mi WNW 6.9 mph - N/A   Clear
8:15 PM 53.1 °F - 30.4 °F 42% 30.07 in 10.0 mi NW 3.5 mph - N/A   Clear
8:35 PM 52.2 °F - 30.7 °F 44% 30.08 in 10.0 mi Calm Calm - N/A   Clear
8:55 PM 52.0 °F - 30.6 °F 44% 30.08 in 10.0 mi Calm Calm - N/A   Scattered Clouds
9:15 PM 51.1 °F - 30.7 °F 46% 30.09 in 10.0 mi WNW 3.5 mph - N/A   Scattered Clouds
9:35 PM 50.9 °F - 31.1 °F 47% 30.10 in 10.0 mi Calm Calm - N/A   Clear
9:55 PM 50.0 °F - 31.1 °F 48% 30.11 in 10.0 mi Calm Calm - N/A   Scattered Clouds
10:15 PM 49.8 °F - 31.5 °F 49% 30.12 in 10.0 mi Calm Calm - N/A   Mostly Cloudy
10:35 PM 49.3 °F - 32.0 °F 51% 30.13 in 10.0 mi Calm Calm - N/A   Mostly Cloudy
10:55 PM 49.1 °F - 31.8 °F 51% 30.13 in 10.0 mi Calm Calm - N/A   Scattered Clouds
11:15 PM 47.8 °F - 32.0 °F 54% 30.13 in 10.0 mi Calm Calm - N/A   Scattered Clouds
11:35 PM 48.2 °F - 32.0 °F 54% 30.13 in 10.0 mi Calm Calm - N/A   Scattered Clouds
11:55 PM 48.0 °F - 32.0 °F 54% 30.13 in 10.0 mi NNW 3.5 mph - N/A   Mostly Cloudy